Regional Weather Roundup
Issued by NWS Sioux Falls, SD

Home | Current Version | Previous Version | Graphics & Text | Print | Product List | Glossary Off
Versions: 1 2 3 4 5 6 7 8 9 10 11 12 13 14 15 16 17 18 19 20 21 22 23 24 25 26 27 28 29 30 31 32 33 34 35 36 37 38 39 40 41 42 43 44 45 46 47 48 49 50

000
ASUS43 KFSD 210410
RWRFSD

WEATHER ROUNDUP FOR SE SOUTH DAKOTA/SW MINNESOTA/NW IOWA
NATIONAL WEATHER SERVICE SIOUX FALLS SD
1100 PM CDT FRI OCT 20 2017

NOTE: "FAIR" INDICATES FEW OR NO CLOUDS BELOW 12,000 FEET WITH NO
SIGNIFICANT WEATHER AND OR OBSTRUCTIONS TO VISIBILITY.


SDZ038>040-050-052>070-210500-
SOUTHEAST SOUTH DAKOTA

CITY           SKY/WX    TMP DP  RH WIND       PRES   REMARKS
BROOKINGS      PTCLDY    66  58  75 S18G31    29.54F
CHAMBERLAIN    CLEAR     70  58  66 S21G26    29.41S
HURON          PTCLDY    69  58  67 S15G28    29.42F
MADISON        FAIR      66  61  82 S28G36    29.54F
MITCHELL       CLEAR     70  58  65 S21G31    29.47F
SIOUX FALLS    MOCLDY    70  59  68 S24G33    29.58S
WINNER         FAIR      70  54  56 S23G30    29.41R
YANKTON        PTCLDY    71  58  63 S14G26    29.57R
$$

MNZ071-072-080-081-089-090-097-098-210500-
SOUTHWEST MINNESOTA

CITY           SKY/WX    TMP DP  RH WIND       PRES   REMARKS
FAIRMONT       CLOUDY    65  55  70 S25G37    29.71R
JACKSON        CLOUDY    64  54  68 S20G26    29.70S
LUVERNE        PTCLDY    64  54  68 S16G22    29.62F
MARSHALL       PTCLDY    68  57  68 S20G31    29.58S
MONTEVIDEO     CLOUDY    66  55  68 S14G21    29.58R
PIPESTONE      PTCLDY    66  55  68 S20G29    29.60S
REDWOOD FALLS  CLOUDY    67  53  61 S23G30    29.62F
TRACY          CLOUDY    66  58  73 S21G28    29.61F
WORTHINGTON    PTCLDY    65  57  75 S22G28    29.65F
$$

IAZ001>003-012>014-020>022-031-032-NEZ013-014-SDZ071-210500-
NORTHWEST IOWA

CITY           SKY/WX    TMP DP  RH WIND       PRES   REMARKS
CHEROKEE       CLOUDY    66  57  73 S24G32    29.69R
DENISON        CLEAR     64  57  77 S24G35    29.73S
ESTHERVILLE    CLOUDY    63  56  78 S23G33    29.71R
LE MARS        CLOUDY    68  57  68 S22G31    29.64R
ORANGE CITY    CLOUDY    68  61  77 S17G25    29.65R
SHELDON        CLOUDY    66  57  72 S21G29    29.64S
SIOUX CITY     PTCLDY    68  58  70 S22G32    29.65R
SPENCER        CLOUDY    65  56  72 S25G32    29.69S
STORM LAKE     CLOUDY    64  57  77 S26       29.71S
$$

ABBREVIATIONS USED IN REMARKS
   TC - TEMPERATURE IN CELSIUS
  WCI - WIND CHILL INDEX
   HX - HEAT INDEX
  VSB - VISIBILITY





USA.gov is the U.S. government's official web portal to all federal, state and local government web resources and services.